| time (UTC) | temp F | wind direction | speed MPH | gust MPH | rain 1hr in | rain 24hr in | rain mn in | humidity % | barometer mb |
| 20260901030042 | 55 | 0 | 0.0 | 1.0 | 0.00 | 0.38 | 0.38 | 63 | 1005.8 |
| 20260901024534 | 56 | 0 | 0.0 | 0.0 | 0.00 | 0.38 | 0.38 | 64 | 1005.7 |
| 20260901023036 | 56 | 0 | 0.0 | 1.0 | 0.00 | 0.38 | 0.38 | 67 | 1005.5 |
| 20260901021537 | 56 | 0 | 0.0 | 0.0 | 0.00 | 0.38 | 0.38 | 68 | 1005.5 |
| 20260901020038 | 56 | 0 | 0.0 | 0.0 | 0.00 | 0.38 | 0.38 | 67 | 1005.3 |
| 20260901014540 | 55 | 0 | 0.0 | 0.0 | 0.00 | 0.38 | 0.38 | 71 | 1005.4 |
| 20260901013041 | 54 | 0 | 0.0 | 1.0 | 0.00 | 0.38 | 0.38 | 74 | 1005.2 |
| 20260901011537 | 53 | 0 | 0.0 | 2.0 | 0.00 | 0.38 | 0.38 | 74 | 1005.3 |
| 20260901010037 | 52 | 0 | 0.0 | 0.0 | 0.00 | 0.38 | 0.38 | 78 | 1005.1 |
| 20260901004540 | 52 | 0 | 0.0 | 2.0 | 0.00 | 0.38 | 0.38 | 76 | 1005.2 |
| 20260901003036 | 52 | 0 | 0.0 | 3.0 | 0.00 | 0.38 | 0.38 | 76 | 1005.1 |
| 20260901001548 | 51 | 0 | 0.0 | 0.0 | 0.00 | 0.38 | 0.38 | 79 | 1005.0 |
| 20260901000036 | 50 | 0 | 0.0 | 0.0 | 0.00 | 0.38 | 0.38 | 80 | 1005.0 |
| 20260831234538 | 49 | 0 | 0.0 | 3.0 | 0.00 | 0.38 | 0.38 | 82 | 1005.0 |
| 20260831233034 | 49 | 0 | 0.0 | 0.0 | 0.00 | 0.38 | 0.38 | 85 | 1004.9 |
| 20260831231536 | 48 | 0 | 0.0 | 1.0 | 0.00 | 0.38 | 0.38 | 85 | 1004.9 |
| 20260831230032 | 47 | 0 | 0.0 | 5.0 | 0.00 | 0.38 | 0.38 | 87 | 1004.8 |
| 20260831224534 | 46 | 0 | 0.0 | 0.0 | 0.00 | 0.38 | 0.38 | 90 | 1005.0 |
| 20260831223034 | 44 | 0 | 0.0 | 0.0 | 0.00 | 0.38 | 0.38 | 91 | 1005.1 |
| 20260831221543 | 43 | 0 | 0.0 | 0.0 | 0.00 | 0.38 | 0.38 | 91 | 1005.3 |
| 20260831220032 | 43 | 0 | 0.0 | 1.0 | 0.00 | 0.38 | 0.38 | 90 | 1005.2 |
| 20260831214535 | 42 | 0 | 0.0 | 1.0 | 0.00 | 0.38 | 0.38 | 92 | 1005.3 |
| 20260831213047 | 42 | 0 | 0.0 | 2.0 | 0.00 | 0.38 | 0.38 | 92 | 1005.2 |
| 20260831211538 | 42 | 0 | 0.0 | 1.0 | 0.01 | 0.38 | 0.38 | 94 | 1005.3 |
| 20260831210036 | 41 | 0 | 0.0 | 1.0 | 0.02 | 0.38 | 0.38 | 94 | 1005.4 |
| 20260831204533 | 41 | 0 | 0.0 | 1.0 | 0.02 | 0.38 | 0.38 | 94 | 1005.3 |
| 20260831203036 | 41 | 0 | 0.0 | 0.0 | 0.01 | 0.37 | 0.37 | 94 | 1005.2 |
| 20260831201535 | 40 | 0 | 0.0 | 0.0 | 0.01 | 0.37 | 0.37 | 94 | 1005.3 |
| 20260831200039 | 40 | 0 | 0.0 | 0.0 | 0.02 | 0.36 | 0.36 | 94 | 1005.3 |
| 20260831194535 | 40 | 0 | 0.0 | 0.0 | 0.02 | 0.36 | 0.36 | 94 | 1005.3 |
| 20260831193035 | 39 | 0 | 0.0 | 0.0 | 0.03 | 0.36 | 0.36 | 94 | 1005.5 |
| 20260831191543 | 39 | 0 | 0.0 | 3.0 | 0.03 | 0.36 | 0.36 | 93 | 1005.6 |
| 20260831190035 | 39 | 0 | 0.0 | 6.0 | 0.01 | 0.34 | 0.34 | 92 | 1005.8 |
| 20260831184537 | 41 | 0 | 0.0 | 3.0 | 0.01 | 0.34 | 0.34 | 89 | 1005.8 |
| 20260831183036 | 42 | 0 | 1.0 | 19.0 | 0.00 | 0.33 | 0.33 | 83 | 1005.6 |
| 20260831181533 | 43 | 0 | 0.0 | 0.0 | 0.00 | 0.33 | 0.33 | 82 | 1005.4 |
| 20260831180032 | 44 | 0 | 0.0 | 1.0 | 0.00 | 0.33 | 0.33 | 81 | 1005.3 |
| 20260831174536 | 43 | 0 | 0.0 | 0.0 | 0.00 | 0.33 | 0.33 | 85 | 1005.3 |
| 20260831173035 | 43 | 0 | 0.0 | 0.0 | 0.00 | 0.33 | 0.33 | 86 | 1005.2 |
| 20260831171536 | 42 | 0 | 0.0 | 0.0 | 0.00 | 0.33 | 0.33 | 87 | 1005.1 |
| 20260831170036 | 42 | 0 | 0.0 | 0.0 | 0.00 | 0.33 | 0.33 | 91 | 1005.1 |
| 20260831164545 | 41 | 0 | 0.0 | 0.0 | 0.00 | 0.33 | 0.33 | 91 | 1005.2 |
| 20260831163039 | 41 | 0 | 0.0 | 0.0 | 0.01 | 0.33 | 0.33 | 89 | 1005.0 |
| 20260831161534 | 40 | 0 | 0.0 | 0.0 | 0.03 | 0.33 | 0.33 | 91 | 1004.8 |
| 20260831160037 | 39 | 0 | 0.0 | 2.0 | 0.07 | 0.33 | 0.33 | 93 | 1004.8 |
| 20260831154600 | 38 | 0 | 0.0 | 2.0 | 0.13 | 0.33 | 0.33 | 93 | 1005.2 |
| 20260831153042 | 38 | 0 | 0.0 | 4.0 | 0.16 | 0.32 | 0.32 | 93 | 1005.9 |
| 20260831151533 | 39 | 0 | 0.0 | 7.0 | 0.19 | 0.30 | 0.30 | 92 | 1006.4 |
| 20260831150036 | 39 | 0 | 0.0 | 5.0 | 0.17 | 0.25 | 0.25 | 92 | 1006.7 |
| 20260831144536 | 40 | 0 | 0.0 | 8.0 | 0.15 | 0.20 | 0.20 | 92 | 1006.7 |
| 20260831143035 | 41 | 55 | 0.0 | 17.0 | 0.15 | 0.16 | 0.16 | 91 | 1006.4 |
| 20260831141534 | 41 | 0 | 1.0 | 16.0 | 0.11 | 0.11 | 0.11 | 92 | 1006.4 |
| 20260831140037 | 42 | 0 | 0.0 | 9.0 | 0.07 | 0.07 | 0.07 | 92 | 1006.4 |
| 20260831134535 | 42 | 0 | 0.0 | 14.0 | 0.05 | 0.05 | 0.05 | 90 | 1006.2 |
| 20260831133038 | 47 | 279 | 6.0 | 23.0 | 0.01 | 0.01 | 0.01 | 82 | 1005.5 |
| 20260831131536 | 51 | 0 | 0.0 | 9.0 | 0.00 | 0.00 | 0.00 | 79 | 1004.5 |
| 20260831130035 | 51 | 0 | 0.0 | 6.0 | 0.00 | 0.00 | 0.00 | 78 | 1004.7 |
| 20260831124550 | 51 | 0 | 0.0 | 8.0 | 0.00 | 0.00 | 0.00 | 79 | 1004.8 |
| 20260831123036 | 51 | 0 | 0.0 | 6.0 | 0.00 | 0.00 | 0.00 | 80 | 1004.9 |
| 20260831121537 | 50 | 0 | 0.0 | 2.0 | 0.00 | 0.00 | 0.00 | 81 | 1005.1 |
| 20260831120031 | 50 | 0 | 0.0 | 2.0 | 0.00 | 0.00 | 0.00 | 82 | 1005.2 |
| 20260831114547 | 50 | 0 | 0.0 | 2.0 | 0.00 | 0.00 | 0.00 | 82 | 1005.3 |
| 20260831113037 | 49 | 0 | 0.0 | 1.0 | 0.00 | 0.00 | 0.00 | 83 | 1005.6 |
| 20260831111533 | 49 | 0 | 0.0 | 0.0 | 0.00 | 0.00 | 0.00 | 83 | 1005.8 |
| 20260831110034 | 49 | 0 | 0.0 | 1.0 | 0.00 | 0.00 | 0.00 | 83 | 1006.0 |
| 20260831104548 | 49 | 0 | 0.0 | 2.0 | 0.00 | 0.00 | 0.00 | 83 | 1006.1 |
| 20260831103038 | 49 | 0 | 0.0 | 0.0 | 0.00 | 0.00 | 0.00 | 82 | 1006.4 |
| 20260831101534 | 49 | 0 | 0.0 | 0.0 | 0.00 | 0.00 | 0.00 | 81 | 1006.7 |
| 20260831100042 | 50 | 0 | 0.0 | 0.0 | 0.00 | 0.00 | 0.00 | 80 | 1007.0 |
| 20260831094536 | 50 | 0 | 0.0 | 1.0 | 0.00 | 0.00 | 0.00 | 80 | 1006.9 |
| 20260831093040 | 50 | 0 | 0.0 | 1.0 | 0.00 | 0.00 | 0.00 | 79 | 1006.8 |
| 20260831091534 | 51 | 0 | 0.0 | 4.0 | 0.00 | 0.00 | 0.00 | 78 | 1007.1 |
| 20260831090035 | 50 | 0 | 0.0 | 0.0 | 0.00 | 0.00 | 0.00 | 79 | 1007.6 |
| 20260831084535 | 51 | 0 | 0.0 | 0.0 | 0.00 | 0.00 | 0.00 | 78 | 1007.8 |
| 20260831083043 | 51 | 0 | 0.0 | 0.0 | 0.00 | 0.00 | 0.00 | 78 | 1008.0 |
| 20260831081536 | 52 | 0 | 0.0 | 0.0 | 0.00 | 0.00 | 0.00 | 79 | 1008.0 |
| 20260831080036 | 52 | 0 | 0.0 | 4.0 | 0.00 | 0.00 | 0.00 | 80 | 1008.4 |
| 20260831074538 | 51 | 0 | 0.0 | 1.0 | 0.00 | 0.00 | 0.00 | 80 | 1008.5 |
| 20260831073046 | 51 | 0 | 0.0 | 0.0 | 0.00 | 0.00 | 0.00 | 81 | 1008.7 |
| 20260831071537 | 51 | 0 | 0.0 | 0.0 | 0.00 | 0.00 | 0.00 | 81 | 1008.8 |
| 20260831070044 | 50 | 0 | 0.0 | 0.0 | 0.00 | 0.00 | 0.00 | 82 | 1009.0 |
| 20260831064536 | 49 | 0 | 0.0 | 0.0 | 0.00 | 0.00 | 0.00 | 85 | 1009.1 |
| 20260831063038 | 49 | 0 | 0.0 | 0.0 | 0.00 | 0.00 | 0.00 | 87 | 1009.2 |
| 20260831061537 | 49 | 0 | 0.0 | 0.0 | 0.00 | 0.00 | 0.00 | 88 | 1009.4 |
| 20260831060041 | 50 | 0 | 0.0 | 0.0 | 0.00 | 0.00 | 0.00 | 89 | 1009.8 |
| 20260831054533 | 50 | 0 | 0.0 | 0.0 | 0.00 | 0.00 | 0.00 | 88 | 1009.9 |
| 20260831053036 | 51 | 0 | 0.0 | 0.0 | 0.00 | 0.00 | 0.00 | 87 | 1010.1 |
| 20260831051536 | 51 | 0 | 0.0 | 0.0 | 0.00 | 0.00 | 0.00 | 86 | 1010.3 |
| 20260831050055 | 52 | 0 | 0.0 | 0.0 | 0.00 | 0.00 | 0.00 | 84 | 1010.3 |
| 20260831044546 | 52 | 0 | 0.0 | 0.0 | 0.00 | 0.00 | 0.00 | 84 | 1010.6 |
| 20260831043036 | 52 | 0 | 0.0 | 0.0 | 0.00 | 0.00 | 0.00 | 83 | 1010.5 |
| 20260831041535 | 52 | 0 | 0.0 | 0.0 | 0.00 | 0.00 | 0.00 | 81 | 1010.4 |
| 20260831040035 | 53 | 0 | 0.0 | 0.0 | 0.00 | 0.00 | 0.00 | 82 | 1010.4 |
| 20260831034537 | 53 | 0 | 0.0 | 0.0 | 0.00 | 0.00 | 0.00 | 80 | 1010.7 |
| 20260831033037 | 54 | 0 | 0.0 | 0.0 | 0.00 | 0.00 | 0.00 | 79 | 1011.0 |
| 20260831031532 | 55 | 0 | 0.0 | 0.0 | 0.00 | 0.00 | 0.00 | 78 | 1011.4 |